Location: North Mitre
(40.7833°S, 175.4667°E)
Time: 02:28:21
(UTC+00:00)

Cosmos 44 - Pass Details

Date: 04 August 2024
Orbit: 585 x 770 km, 65.1° (Epoch: 07 September)

Event Time Altitude Azimuth Distance (km) Brightness Sun altitude
Exits shadow 17:19:00 40° 191° (S) 941 3.8 -23.2°
Drops below altitude 10° 17:22:26 10° 158° (SSE) 2,072 6.0 -22.5°
Sets 17:24:53 0° 152° (SSE) 3,021 6.9 -22.1°
